This demonstration page uses our WeatherBlox Daily Observations layout. Learn more.

Left ArrowRight Arrow

40.97296, -117.73568

Hourly Observations for August 29, 2016

Temp ( °F °C ) Dew Point ( °F °C ) Humidity (%) Winds ( mph kmh ) Pressure ( in mb ) Visibility ( mi km ) Precip ( " mm )
12:56 am 00:56 Clear 50 10 21 -6.1 32 32 SSW 7 11 30.05 1018 10 16 0.00 0.00
1:56 am 01:56 Clear 50 10 19 -7.2 29 29 SE 6 9 30.05 1018 10 16 0.00 0.00
2:56 am 02:56 Clear 48 8.9 21 -6.1 34 34 ESE 5 7 30.06 1018 10 16 0.00 0.00
3:56 am 03:56 Clear 44 6.7 20 -6.7 38 38 S 3 6 30.07 1018 10 16 0.00 0.00
4:56 am 04:56 Clear 44 6.7 20 -6.7 38 38 SE 6 9 30.08 1019 10 16 0.00 0.00
5:56 am 05:56 Clear 44 6.7 20 -6.7 38 38 SE 5 7 30.09 1019 10 16 0.00 0.00
6:56 am 06:56 Sunny 47 8.3 22 -5.6 37 37 SSE 3 6 30.11 1020 10 16 0.00 0.00
7:56 am 07:56 Sunny 56 13.3 20 -6.7 24 24 SSE 6 9 30.13 1020 10 16 0.00 0.00
8:56 am 08:56 Sunny 68 20 22 -5.6 17 17 Calm 30.11 1020 10 16 0.00 0.00
9:56 am 09:56 Sunny 77 25 20 -6.7 12 12 Calm 30.10 1019 10 16 0.00 0.00
10:56 am 10:56 Sunny 82 27.8 17 -8.3 9 9 NW 5 7 30.09 1019 10 16 0.00 0.00
11:56 am 11:56 Sunny 85 29.4 19 -7.2 9 9 N 5 7 30.08 1019 10 16 0.00 0.00
12:56 pm 12:56 Sunny 88 31.1 19 -7.2 8 8 VRB 3 6 30.05 1018 10 16 0.00 0.00
1:56 pm 13:56 Sunny 91 32.8 20 -6.7 7 7 VRB 5 7 30.02 1017 10 16 0.00 0.00
2:56 pm 14:56 Sunny 91 32.8 21 -6.1 8 8 N 5 7 30.00 1016 10 16 0.00 0.00
3:56 pm 15:56 Sunny 93 33.9 21 -6.1 7 7 WNW 8 13 29.98 1015 10 16 0.00 0.00
4:40 pm 16:40 Sunny 91 33 21 -6 8 8 W 10 17 29.68 1005 10 16 0.00 0.00
4:56 pm 16:56 Sunny 93 33.9 21 -6.1 7 7 W 13 20 29.97 1015 10 16 0.00 0.00
5:56 pm 17:56 Sunny 92 33.3 21 -6.1 7 7 NW 8 13 29.96 1015 10 16 0.00 0.00
6:56 pm 18:56 Sunny 83 28.3 21 -6.1 10 10 W 5 7 29.97 1015 10 16 0.00 0.00
7:56 pm 19:56 Clear 75 23.9 22 -5.6 14 14 Calm 29.97 1015 10 16 0.00 0.00
8:56 pm 20:56 Clear 70 21.1 18 -7.8 14 14 W 8 13 29.98 1015 10 16 0.00 0.00
9:56 pm 21:56 Clear 67 19.4 20 -6.7 17 17 Calm 29.97 1015 10 16 0.00 0.00
10:56 pm 22:56 Clear 60 15.6 20 -6.7 21 21 S 7 11 29.97 1015 10 16 0.00 0.00
11:56 pm 23:56 Clear 62 16.7 20 -6.7 20 20 SE 10 17 29.96 1015 10 16 0.00 0.00

Powered by AerisWeather